Weather in Xingtai

China     37°03′46″N   114°28′27″E
В апреле 2022 года жителям России запретили посещать сайт meteo.paraplan.net по решению Генеральной прокуратуры. Аудитория сайта уменьшилась в 10 раз. Владельцы сайта не видят смысла в поддержке погодного сервера в таких условиях. Сайт будет закрыт в октябре.
temp.,
°C
wind,
m/s
gust,
m/s
humid.,
%
clouds,
%
prec.,
mm/h
press.,
hPa
HPBL,
m
5 october, wed
wed523:00+10ssw11495 0.0 103010
02:00+9wnw11505 0.0 103010
05:00+8nw11555 0.0 102910
08:00+10ene1152100 0.0 1030136
11:00+13e2233100 0.0 1030959
14:00+14ese2236100 0.0 10281067
17:00+13s2346100 0.0 1027511
20:00+12ssw2450100 0.0 1028138
6 october, thu
thu623:00+12ssw3551100 0.0 1029199
02:00+12ssw2451100 0.0 1027188
05:00+11s2453100 0.0 1027172
08:00+12sse3563100 0.0 1027317
11:00+14s4558100 0.0 1027832
14:00+16s4556100 0.0 10251026
17:00+14sse5664100 0.0 1024623
20:00+12s4772100 0.0 1025297
7 october, fri
fri723:00+10s367911 0.0 1025178
02:00+10s23835 0.0 102565
05:00+9s228688 0.0 102544
08:00+11sse22797 0.0 1025152
11:00+17sse346139 0.0 1025648
14:00+18s5655100 0.0 1022847
17:00+17s685996 0.0 1021700
20:00+14s511690 0.0 1022425
8 october, sat
sat823:00+13s510740 0.0 1022311
02:00+12s488297 0.0 1021235
05:00+11s4785100 0.0 1020216
08:00+13s5879100 0.0 1020270
11:00+19s675489 0.0 1018602
14:00+22s664470 0.0 1016806
17:00+19sse6105731 0.1 1016479
20:00+17ssw366885 0.1 1017141
9 october, sun
sun923:00+15nnw22600 0.0 101816
02:00+14nw49290 0.0 1020132
05:00+13wnw510330 0.0 1021312
08:00+13nw715350 0.0 10231429
11:00+17nw1014250 0.0 10241967
14:00+19nnw1014230 0.0 10222220
17:00+16nnw915270 0.0 10231358
20:00+14nw714270 0.0 1025539